Time,TemperatureF,DewpointF,PressureIn,WindDirection,WindDirectionDegrees,WindSpeedMPH,WindSpeedGustMPH,Humidity,HourlyPrecipIn,Conditions,Clouds,dailyrainin,SolarRadiationWatts/m^2,SoftwareType,DateUTC
2013-03-21 00:03:00,33.0,28.0,-100.00,SE,141,0.0,4.0,81,0.00,,,0.00,0.000000,,2013-03-21 06:03:00,
2013-03-21 00:12:00,33.0,28.0,-100.00,SE,141,0.0,4.0,81,0.00,,,0.00,0.000000,,2013-03-21 06:12:00,
2013-03-21 00:32:00,34.0,26.0,-100.00,SE,144,2.0,4.0,72,0.00,,,0.00,0.000000,,2013-03-21 06:32:00,
2013-03-21 00:42:00,34.0,26.0,-100.00,SE,144,2.0,4.0,72,0.00,,,0.00,0.000000,,2013-03-21 06:42:00,
2013-03-21 00:52:00,34.0,26.0,-100.00,SE,144,2.0,4.0,72,0.00,,,0.00,0.000000,,2013-03-21 06:52:00,
2013-03-21 01:02:00,34.0,26.0,-100.00,SE,144,2.0,4.0,72,0.00,,,0.00,0.000000,,2013-03-21 07:02:00,
2013-03-21 01:12:00,34.0,26.0,-100.00,SE,144,2.0,4.0,72,0.00,,,0.00,0.000000,,2013-03-21 07:12:00,
2013-03-21 01:13:00,32.0,27.0,-100.00,SSE,165,2.0,5.0,83,0.00,,,0.00,0.000000,,2013-03-21 07:13:00,
2013-03-21 01:32:00,32.0,27.0,-100.00,SSE,165,2.0,5.0,83,0.00,,,0.00,0.000000,,2013-03-21 07:32:00,
2013-03-21 01:43:00,32.0,27.0,-100.00,SSE,165,2.0,5.0,83,0.00,,,0.00,0.000000,,2013-03-21 07:43:00,
2013-03-21 01:52:00,32.0,27.0,-100.00,SSE,165,2.0,5.0,83,0.00,,,0.00,0.000000,,2013-03-21 07:52:00,
2013-03-21 02:02:00,32.0,27.0,-100.00,SSE,165,2.0,5.0,83,0.00,,,0.00,0.000000,,2013-03-21 08:02:00,
2013-03-21 02:43:00,33.0,27.0,-100.00,SE,142,2.0,5.0,79,0.00,,,0.00,0.000000,,2013-03-21 08:43:00,
2013-03-21 02:52:00,33.0,27.0,-100.00,SE,142,2.0,5.0,79,0.00,,,0.00,0.000000,,2013-03-21 08:52:00,
2013-03-21 03:02:00,33.0,27.0,-100.00,SE,142,2.0,5.0,79,0.00,,,0.00,0.000000,,2013-03-21 09:02:00,
2013-03-21 03:11:00,33.0,27.0,-100.00,SE,142,2.0,5.0,79,0.00,,,0.00,0.000000,,2013-03-21 09:11:00,
2013-03-21 03:33:00,32.0,27.0,-100.00,SSW,197,2.0,5.0,82,0.00,,,0.00,0.000000,,2013-03-21 09:33:00,
2013-03-21 03:43:00,32.0,27.0,-100.00,SSW,197,2.0,5.0,82,0.00,,,0.00,0.000000,,2013-03-21 09:43:00,
2013-03-21 03:53:00,32.0,27.0,-100.00,SSW,197,2.0,5.0,82,0.00,,,0.00,0.000000,,2013-03-21 09:53:00,
2013-03-21 04:03:00,32.0,27.0,-100.00,SSW,197,2.0,5.0,82,0.00,,,0.00,0.000000,,2013-03-21 10:03:00,
2013-03-21 04:12:00,32.0,27.0,-100.00,SSW,197,2.0,5.0,82,0.00,,,0.00,0.000000,,2013-03-21 10:12:00,
2013-03-21 04:43:00,32.0,27.0,-100.00,West,275,1.0,5.0,81,0.00,,,0.00,0.000000,,2013-03-21 10:43:00,
2013-03-21 04:53:00,32.0,27.0,-100.00,West,275,1.0,5.0,81,0.00,,,0.00,0.000000,,2013-03-21 10:53:00,
2013-03-21 05:03:00,32.0,27.0,-100.00,West,275,1.0,5.0,81,0.00,,,0.00,0.000000,,2013-03-21 11:03:00,
2013-03-21 05:12:00,32.0,27.0,-100.00,West,275,1.0,5.0,81,0.00,,,0.00,0.000000,,2013-03-21 11:12:00,
2013-03-21 05:33:00,30.0,28.0,-100.00,North,354,4.0,11.0,93,0.00,,,0.00,0.000000,,2013-03-21 11:33:00,
2013-03-21 05:43:00,30.0,28.0,-100.00,North,354,4.0,11.0,93,0.00,,,0.00,0.000000,,2013-03-21 11:43:00,
2013-03-21 05:53:00,30.0,28.0,-100.00,North,354,4.0,11.0,93,0.00,,,0.00,0.000000,,2013-03-21 11:53:00,
2013-03-21 06:02:00,30.0,28.0,-100.00,North,354,4.0,11.0,93,0.00,,,0.00,0.000000,,2013-03-21 12:02:00,
2013-03-21 06:12:00,30.0,28.0,-100.00,North,354,4.0,11.0,93,0.00,,,0.00,0.000000,,2013-03-21 12:12:00,
2013-03-21 06:33:00,31.0,30.0,-100.00,SE,132,1.0,6.0,96,0.00,,,0.00,0.000000,,2013-03-21 12:33:00,
2013-03-21 06:43:00,31.0,30.0,-100.00,SE,132,1.0,6.0,96,0.00,,,0.00,0.000000,,2013-03-21 12:43:00,
2013-03-21 06:53:00,31.0,30.0,-100.00,SE,132,1.0,6.0,96,0.00,,,0.00,0.000000,,2013-03-21 12:53:00,
2013-03-21 07:02:00,31.0,30.0,-100.00,SE,132,1.0,6.0,96,0.00,,,0.00,0.000000,,2013-03-21 13:02:00,
2013-03-21 07:12:00,31.0,30.0,-100.00,SE,132,1.0,6.0,96,0.00,,,0.00,0.000000,,2013-03-21 13:12:00,
2013-03-21 07:33:00,30.0,29.0,-100.00,SE,130,5.0,9.0,97,0.00,,,0.00,0.000000,,2013-03-21 13:33:00,
2013-03-21 07:42:00,30.0,29.0,-100.00,SE,130,5.0,9.0,97,0.00,,,0.00,0.000000,,2013-03-21 13:42:00,
2013-03-21 07:52:00,30.0,29.0,-100.00,SE,130,5.0,9.0,97,0.00,,,0.00,0.000000,,2013-03-21 13:52:00,
2013-03-21 08:02:00,30.0,29.0,-100.00,SE,130,5.0,9.0,97,0.00,,,0.00,0.000000,,2013-03-21 14:02:00,
2013-03-21 08:12:00,30.0,29.0,-100.00,SE,130,5.0,9.0,97,0.00,,,0.00,0.000000,,2013-03-21 14:12:00,
2013-03-21 08:43:00,32.0,31.0,-100.00,SSE,148,5.0,11.0,97,0.00,,,0.00,8.000000,,2013-03-21 14:43:00,
2013-03-21 08:52:00,32.0,31.0,-100.00,SSE,148,5.0,11.0,97,0.00,,,0.00,8.000000,,2013-03-21 14:52:00,
2013-03-21 09:12:00,32.0,31.0,-100.00,SSE,148,5.0,11.0,97,0.00,,,0.00,8.000000,,2013-03-21 15:12:00,
2013-03-21 09:33:00,35.0,33.0,-100.00,SE,140,6.0,10.0,94,0.00,,,0.00,46.000000,,2013-03-21 15:33:00,
2013-03-21 09:43:00,35.0,33.0,-100.00,SE,140,6.0,10.0,94,0.00,,,0.00,46.000000,,2013-03-21 15:43:00,
2013-03-21 09:53:00,35.0,33.0,-100.00,SE,140,6.0,10.0,94,0.00,,,0.00,46.000000,,2013-03-21 15:53:00,
2013-03-21 10:03:00,35.0,33.0,-100.00,SE,140,6.0,10.0,94,0.00,,,0.00,46.000000,,2013-03-21 16:03:00,
2013-03-21 10:12:00,35.0,33.0,-100.00,SE,140,6.0,10.0,94,0.00,,,0.00,46.000000,,2013-03-21 16:12:00,
2013-03-21 10:33:00,38.0,34.0,-100.00,SE,145,3.0,11.0,84,0.11,,,0.11,405.000000,,2013-03-21 16:33:00,
2013-03-21 10:42:00,38.0,34.0,-100.00,SE,145,3.0,11.0,84,0.11,,,0.11,405.000000,,2013-03-21 16:42:00,
2013-03-21 10:53:00,38.0,34.0,-100.00,SE,145,3.0,11.0,84,0.11,,,0.11,405.000000,,2013-03-21 16:53:00,
2013-03-21 11:02:00,38.0,34.0,-100.00,SE,145,3.0,11.0,84,0.11,,,0.11,405.000000,,2013-03-21 17:02:00,
2013-03-21 11:12:00,38.0,34.0,-100.00,SE,145,3.0,11.0,84,0.11,,,0.11,405.000000,,2013-03-21 17:12:00,
2013-03-21 11:33:00,36.0,33.0,-100.00,NW,324,3.0,12.0,88,0.00,,,0.11,317.000000,,2013-03-21 17:33:00,
2013-03-21 11:43:00,36.0,33.0,-100.00,NW,324,3.0,12.0,88,0.00,,,0.11,317.000000,,2013-03-21 17:43:00,
2013-03-21 11:53:00,36.0,33.0,-100.00,NW,324,3.0,12.0,88,0.00,,,0.11,317.000000,,2013-03-21 17:53:00,
2013-03-21 12:02:00,36.0,33.0,-100.00,NW,324,3.0,12.0,88,0.00,,,0.11,317.000000,,2013-03-21 18:02:00,
2013-03-21 12:12:00,36.0,33.0,-100.00,NW,324,3.0,12.0,88,0.00,,,0.11,317.000000,,2013-03-21 18:12:00,
2013-03-21 12:43:00,32.0,30.0,-100.00,WNW,286,7.0,20.0,94,0.00,,,0.11,73.000000,,2013-03-21 18:43:00,
2013-03-21 12:52:00,32.0,30.0,-100.00,WNW,286,7.0,20.0,94,0.00,,,0.11,73.000000,,2013-03-21 18:52:00,
2013-03-21 13:02:00,32.0,30.0,-100.00,WNW,286,7.0,20.0,94,0.00,,,0.11,73.000000,,2013-03-21 19:02:00,
2013-03-21 13:12:00,32.0,30.0,-100.00,WNW,286,7.0,20.0,94,0.00,,,0.11,73.000000,,2013-03-21 19:12:00,
2013-03-21 13:43:00,34.0,30.0,-100.00,West,272,4.0,18.0,86,0.00,,,0.11,137.000000,,2013-03-21 19:43:00,
2013-03-21 13:53:00,34.0,30.0,-100.00,West,272,4.0,18.0,86,0.00,,,0.11,137.000000,,2013-03-21 19:53:00,
2013-03-21 14:02:00,34.0,30.0,-100.00,West,272,4.0,18.0,86,0.00,,,0.11,137.000000,,2013-03-21 20:02:00,
2013-03-21 14:12:00,34.0,30.0,-100.00,West,272,4.0,18.0,86,0.00,,,0.11,137.000000,,2013-03-21 20:12:00,
2013-03-21 14:42:00,40.0,28.0,-100.00,WSW,249,3.0,12.0,61,0.05,,,0.16,747.000000,,2013-03-21 20:42:00,
2013-03-21 14:53:00,40.0,28.0,-100.00,WSW,249,3.0,12.0,61,0.05,,,0.16,747.000000,,2013-03-21 20:53:00,
2013-03-21 15:02:00,40.0,28.0,-100.00,WSW,249,3.0,12.0,61,0.05,,,0.16,747.000000,,2013-03-21 21:02:00,
2013-03-21 15:12:00,40.0,28.0,-100.00,WSW,249,3.0,12.0,61,0.05,,,0.16,747.000000,,2013-03-21 21:12:00,
2013-03-21 15:13:00,36.0,25.0,-100.00,WSW,240,6.0,15.0,65,0.01,,,0.17,451.000000,,2013-03-21 21:13:00,
2013-03-21 15:43:00,36.0,25.0,-100.00,WSW,240,6.0,15.0,65,0.01,,,0.17,451.000000,,2013-03-21 21:43:00,
2013-03-21 15:53:00,36.0,25.0,-100.00,WSW,240,6.0,15.0,65,0.01,,,0.17,451.000000,,2013-03-21 21:53:00,
2013-03-21 16:03:00,36.0,25.0,-100.00,WSW,240,6.0,15.0,65,0.01,,,0.17,451.000000,,2013-03-21 22:03:00,
2013-03-21 16:34:00,35.0,23.0,-100.00,NNE,19,4.0,17.0,62,0.00,,,0.17,333.000000,,2013-03-21 22:34:00,
2013-03-21 16:43:00,35.0,23.0,-100.00,NNE,19,4.0,17.0,62,0.00,,,0.17,333.000000,,2013-03-21 22:43:00,
2013-03-21 16:53:00,35.0,23.0,-100.00,NNE,19,4.0,17.0,62,0.00,,,0.17,333.000000,,2013-03-21 22:53:00,
2013-03-21 17:02:00,35.0,23.0,-100.00,NNE,19,4.0,17.0,62,0.00,,,0.17,333.000000,,2013-03-21 23:02:00,
2013-03-21 17:12:00,35.0,23.0,-100.00,NNE,19,4.0,17.0,62,0.00,,,0.17,333.000000,,2013-03-21 23:12:00,
2013-03-21 17:33:00,37.0,20.0,-100.00,WSW,256,3.0,10.0,50,0.00,,,0.17,445.000000,,2013-03-21 23:33:00,
2013-03-21 17:43:00,37.0,20.0,-100.00,WSW,256,3.0,10.0,50,0.00,,,0.17,445.000000,,2013-03-21 23:43:00,
2013-03-21 17:53:00,37.0,20.0,-100.00,WSW,256,3.0,10.0,50,0.00,,,0.17,445.000000,,2013-03-21 23:53:00,
2013-03-21 18:02:00,37.0,20.0,-100.00,WSW,256,3.0,10.0,50,0.00,,,0.17,445.000000,,2013-03-22 00:02:00,
2013-03-21 18:12:00,37.0,20.0,-100.00,WSW,256,3.0,10.0,50,0.00,,,0.17,445.000000,,2013-03-22 00:12:00,
2013-03-21 19:43:00,33.0,16.0,-100.00,NW,311,6.0,15.0,49,-99.99,,,0.17,102.000000,,2013-03-22 01:43:00,
2013-03-21 19:53:00,33.0,16.0,-100.00,NW,311,6.0,15.0,49,-99.99,,,0.17,102.000000,,2013-03-22 01:53:00,
2013-03-21 20:02:00,33.0,16.0,-100.00,NW,311,6.0,15.0,49,-99.99,,,0.17,102.000000,,2013-03-22 02:02:00,
2013-03-21 20:12:00,33.0,16.0,-100.00,NW,311,6.0,15.0,49,-99.99,,,0.17,102.000000,,2013-03-22 02:12:00,
2013-03-21 20:43:00,30.0,14.0,-100.00,NW,319,11.0,19.0,50,0.00,,,0.17,3.000000,,2013-03-22 02:43:00,
2013-03-21 20:53:00,30.0,14.0,-100.00,NW,319,11.0,19.0,50,0.00,,,0.17,3.000000,,2013-03-22 02:53:00,
2013-03-21 21:02:00,30.0,14.0,-100.00,NW,319,11.0,19.0,50,0.00,,,0.17,3.000000,,2013-03-22 03:02:00,
2013-03-21 21:12:00,30.0,14.0,-100.00,NW,319,11.0,19.0,50,0.00,,,0.17,3.000000,,2013-03-22 03:12:00,
2013-03-21 21:33:00,28.0,14.0,-100.00,NW,315,9.0,17.0,56,0.00,,,0.17,0.000000,,2013-03-22 03:33:00,
2013-03-21 21:43:00,28.0,14.0,-100.00,NW,315,9.0,17.0,56,0.00,,,0.17,0.000000,,2013-03-22 03:43:00,
2013-03-21 21:53:00,28.0,14.0,-100.00,NW,315,9.0,17.0,56,0.00,,,0.17,0.000000,,2013-03-22 03:53:00,
2013-03-21 22:03:00,28.0,14.0,-100.00,NW,315,9.0,17.0,56,0.00,,,0.17,0.000000,,2013-03-22 04:03:00,
2013-03-21 22:12:00,28.0,14.0,-100.00,NW,315,9.0,17.0,56,0.00,,,0.17,0.000000,,2013-03-22 04:12:00,
2013-03-21 22:32:00,27.0,14.0,-100.00,NW,308,6.0,15.0,57,0.00,,,0.17,0.000000,,2013-03-22 04:32:00,
2013-03-21 22:43:00,27.0,14.0,-100.00,NW,308,6.0,15.0,57,0.00,,,0.17,0.000000,,2013-03-22 04:43:00,
2013-03-21 22:52:00,27.0,14.0,-100.00,NW,308,6.0,15.0,57,0.00,,,0.17,0.000000,,2013-03-22 04:52:00,
2013-03-21 23:02:00,27.0,14.0,-100.00,NW,308,6.0,15.0,57,0.00,,,0.17,0.000000,,2013-03-22 05:02:00,
2013-03-21 23:12:00,27.0,14.0,-100.00,NW,308,6.0,15.0,57,0.00,,,0.17,0.000000,,2013-03-22 05:12:00,
2013-03-21 23:13:00,25.0,13.0,-100.00,North,356,2.0,8.0,61,0.00,,,0.17,0.000000,,2013-03-22 05:13:00,
2013-03-21 23:32:00,25.0,13.0,-100.00,North,356,2.0,8.0,61,0.00,,,0.17,0.000000,,2013-03-22 05:32:00,
2013-03-21 23:42:00,25.0,13.0,-100.00,North,356,2.0,8.0,61,0.00,,,0.17,0.000000,,2013-03-22 05:42:00,
2013-03-21 23:52:00,25.0,13.0,-100.00,North,356,2.0,8.0,61,0.00,,,0.17,0.000000,,2013-03-22 05:52:00,